Regional Weather Roundup
Issued by NWS

Home | Current Version | Previous Version | Text Only | Print | Product List | Glossary On
Versions: 1 2 3 4 5 6 7 8 9 10 11 12 13 14 15 16 17 18 19 20 21 22 23 24 25 26 27 28 29 30 31 32 33 34 35 36 37 38 39 40 41 42 43 44 45 46 47 48 49 50
000
ASUS46 KSEW 261010
RWRWA

WASHINGTON REGIONAL WEATHER ROUNDUP
NATIONAL WEATHER SERVICE SEATTLE WA
200 AM PST FRI DEC 26 2014

NOTE:"FAIR" INDICATES FEW OR NO CLOUDS BELOW 12,000 FEET WITH NO
SIGNIFICANT WEATHER AND/OR OBSTRUCTIONS TO VISIBILITY.

WAZ505-507>509-261100-
SEATTLE, TACOMA, EVERETT, AND VICINITY

CITY           SKY/WX    TMP DP  RH WIND       PRES   REMARKS
EVERETT        CLOUDY    39  37  92 S6        30.30R
BOEING FIELD   CLOUDY    42  36  79 E5        30.32R
RENTON         CLOUDY    39  37  92 E3        30.32R
SEATAC AIRPORT CLOUDY    39  36  89 SE3       30.31R
JBLM-MCCHORD   CLOUDY    38  38  99 SW3       30.31R
PUYALLUP       NOT AVBL
BREMERTON      CLOUDY    36  36 100 W5        30.33R
JBLM-FT LEWIS  CLOUDY    37  37 100 SE5       30.31R FOG
TACOMA NARROWS CLOUDY    40  37  89 SW7       30.31R
$$

WAZ001-503-506-510-514-515-261100-
NORTH INTERIOR

CITY           SKY/WX    TMP DP  RH WIND       PRES   REMARKS
BELLINGHAM     CLOUDY    37  35  92 CALM      30.31R
FRIDAY HARBOR  CLOUDY    42  39  89 CALM      30.32R
EASTSOUND      PTCLDY    37  37 100 CALM      30.30R
PORT ANGELES   CLOUDY    38  35  89 CALM      30.29R
NAS WHIDBEY    PTCLDY    41  37  86 E8        30.32R
ARLINGTON      CLOUDY    37  34  87 CALM      30.33R
BURLINGTON     CLOUDY    39  37  93 NE7       30.32R
$$

WAZ020-022-039-040-504-511-512-261100-
SOUTHWEST INTERIOR

CITY           SKY/WX    TMP DP  RH WIND       PRES   REMARKS
SHELTON        CLOUDY    37  35  92 CALM      30.29R
OLYMPIA        CLOUDY    38  37  97 CALM      30.31R FOG
CHEHALIS       FOG       39  39 100 N3        30.31R VSB 1/2
KELSO          CLOUDY    41  37  87 CALM      30.33R
VANCOUVER      CLOUDY    43  41  93 CALM      30.30R
SCAPPOOSE, OR  CLOUDY    43  41  93 CALM      30.29R
PORTLAND, OR   CLOUDY    43  42  97 SE3       30.31R
$$

WAZ021-516-517-261100-
WASHINGTON COAST

CITY           SKY/WX    TMP DP  RH WIND       PRES   REMARKS
FORKS          LGT RAIN  42  42 100 E5        30.27R FOG
HOQUIAM        CLOUDY    41  41 100 E8        30.30R
ASTORIA, OR    CLOUDY    42  41  96 E3        30.29R
$$

WAZ019-023-024-040-518-519-261100-
CASCADE MOUNTAINS AND COLUMBIA GORGE

CITY           SKY/WX    TMP DP  RH WIND       PRES   REMARKS
TROUTDALE, OR  CLOUDY    43  41  93 CALM      30.30R
THE DALLES, OR CLEAR     41  35  79 NW10      30.25R
$$

WAZ026-027-041>044-520-521-261100-
EAST SLOPES

CITY           SKY/WX    TMP DP  RH WIND       PRES   REMARKS
OMAK           PTCLDY    23  20  88 CALM      30.21R
WENATCHEE      CLEAR     34  23  64 NW8       30.20R
ELLENSBURG     CLEAR     31  23  72 SW6       30.19R
YAKIMA         CLEAR     24  19  81 NW7       30.21S
$$

WAZ028-034-035-261100-
COLUMBIA BASIN

CITY           SKY/WX    TMP DP  RH WIND       PRES   REMARKS
EPHRATA        CLEAR     35  23  61 N10       30.18R WCI  27
MOSES LAKE     CLEAR     27  23  85 W5        30.20R
PASCO          CLEAR     28  27  96 E3        30.24R
HERMISTON, OR  PTCLDY    30  28  92 CALM      30.24R
$$

WAZ036>038-261100-
NORTHEAST WASHINGTON

CITY           SKY/WX    TMP DP  RH WIND       PRES   REMARKS
SPOKANE GEIGER PTCLDY    26  24  92 CALM      30.11R
SPOKANE FELTS  MOCLDY    29  26  89 CALM      30.14R
FAIRCHILD AFB  CLEAR     26  25  93 NW2       30.11R
COEURDALENE,ID CLEAR     28  27  93 S3        30.11R
DEER PARK      FOG       22  21  96 CALM      30.13R VSB 1/4
$$

WAZ029>033-261100-
SOUTHEAST WASHINGTON

CITY           SKY/WX    TMP DP  RH WIND       PRES   REMARKS
PULLMAN        CLOUDY    32  29  88 W9        30.14R
LEWISTON, ID   CLOUDY    35  30  82 CALM      30.16R
WALLA WALLA    MOCLDY    36  31  82 S9        30.20R
PENDLETON, OR  CLOUDY    34  30  85 NW7       30.20R
$$


USA.gov is the U.S. government's official web portal to all federal, state and local government web resources and services.